Hart Island, Nova Scotia

1:14 AM ADT on August 19, 2017 (GMT -0300)
Hart Island

Weather History for CWRN - September, 2012

Change the Weather History Date:

Wednesday, September 19, 2012

  Actual Average Record
Temperature  
Mean Temperature 66 °F -  
Max Temperature 69 °F - - ()
Min Temperature 62 °F - - ()
Growing Degree Days 16 (Base 50)    
Moisture  
Dew Point -    
Average Humidity    
Maximum Humidity    
Minimum Humidity    
Precipitation  
Precipitation 0.00 in - - ()
Sea Level Pressure  
Sea Level Pressure 30.17 in    
Wind  
Wind Speed 17 mph ()    
Max Wind Speed 26 mph    
Max Gust Speed 36 mph    
T = Trace of Precipitation, MM = Missing Value Source: Averaged Metar Reports

Daily Weather History Graph

Daily Weather History Graph

Search for Another Location

Airport or City:

Trip Planner

Search our weather history database for the weather conditions in past years. The results will help you decide how hot, cold, wet, or windy it might be!

Date:

Astronomy

Sep. 19, 2012 Rise Set
Actual Time 6:47 AM ADT 7:06 PM ADT
Civil Twilight 6:18 AM ADT 7:35 PM ADT
Nautical Twilight 5:43 AM ADT 8:10 PM ADT
Astronomical Twilight 5:07 AM ADT 8:46 PM ADT
Moon 11:07 AM ADT 8:56 PM ADT
Length of Visible Light 13h 17m
Length of Day
12h 18m
Waxing Crescent, 16% of the Moon is Illuminated
Sep 19
Waxing Crescent
Sep 22
First Quarter
Sep 30
Full
Oct 8
Last Quarter
Oct 15
New

Hourly Weather History & Observations

Time (ADT) Temp. Dew Point Humidity Pressure Visibility Wind Dir Wind Speed Gust Speed Precip Events Conditions
12:00 AM 62.2 °F - N/A% 30.24 in - South 13.8 mph - N/A   Unknown
2:00 AM 62.1 °F - N/A% 30.22 in - South 16.1 mph - N/A   Unknown
3:00 AM 62 °F - % 30.22 in - South 16.1 mph - -  
3:00 AM 62.2 °F - N/A% 30.22 in - South 16.1 mph 21.9 mph N/A   Unknown
4:00 AM 62.4 °F - N/A% 30.21 in - South 15.0 mph - N/A   Unknown
5:00 AM 62.1 °F - N/A% 30.19 in - South 15.0 mph - N/A   Unknown
6:00 AM 62.2 °F - N/A% 30.19 in - South 15.0 mph - N/A   Unknown
7:00 AM 63.0 °F - N/A% 30.17 in - SSE 18.4 mph 25.3 mph N/A   Unknown
8:00 AM 64.2 °F - N/A% 30.18 in - SSE 21.9 mph - N/A   Unknown
9:00 AM 65 °F - % 30.18 in - SSE 23.0 mph - -  
9:00 AM 65.5 °F - N/A% 30.18 in - SSE 23.0 mph 31.1 mph N/A   Unknown
10:00 AM 65.7 °F - N/A% 30.17 in - SSE 24.2 mph 32.2 mph N/A   Unknown
11:00 AM 67.1 °F - N/A% 30.17 in - SSE 25.3 mph 32.2 mph N/A   Unknown
12:00 PM 67.8 °F - N/A% 30.16 in - SSE 25.3 mph 33.4 mph N/A   Unknown
1:00 PM 68.4 °F - N/A% 30.15 in - SSE 26.5 mph 35.7 mph N/A   Unknown
2:00 PM 68.2 °F - N/A% 30.14 in - SSE 26.5 mph 34.5 mph N/A   Unknown
3:00 PM 69 °F - % 30.15 in - South 25.3 mph - -  
3:00 PM 68.7 °F - N/A% 30.15 in - South 25.3 mph 33.4 mph N/A   Unknown
4:00 PM 67.5 °F - N/A% 30.14 in - South 21.9 mph 28.8 mph N/A   Unknown
5:00 PM 66.9 °F - N/A% 30.13 in - SSE 23.0 mph - N/A   Unknown
6:00 PM 66.9 °F - N/A% 30.13 in - South 20.7 mph 27.6 mph N/A   Unknown
7:00 PM 66.7 °F - N/A% 30.13 in - South 19.6 mph 26.5 mph N/A   Unknown
8:00 PM 66.6 °F - N/A% 30.13 in - South 18.4 mph 25.3 mph N/A   Unknown
9:00 PM 66 °F - % 30.13 in - South 19.6 mph - -  
9:00 PM 66.2 °F - N/A% 30.13 in - South 19.6 mph 25.3 mph N/A   Unknown
10:00 PM 66.4 °F - N/A% 30.14 in - South 20.7 mph 29.9 mph N/A   Unknown
11:00 PM 66.6 °F - N/A% 30.14 in - South 18.4 mph 27.6 mph N/A   Unknown